Location: Bidart
(43.4376°N, 1.5913°W)
Time: 22:26:41
(UTC+00:00)

Cosmos 2084 Rocket - Pass Details

Date: 19 May 2025
Orbit: 542 x 579 km, 62.8° (Epoch: 12 June)

Event Time Altitude Azimuth Distance (km) Brightness Sun altitude
Rises 21:51:30 0° 226° (SW) 2,781 6.8 -19.8°
Reaches altitude 10° 21:53:46 10° 231° (SW) 1,883 6.0 -20.0°
Maximum altitude 21:57:58 58° 311° (NW) 673 4.0 -20.4°
Drops below altitude 10° 22:02:09 10° 31° (NNE) 1,878 6.4 -20.8°
Sets 22:04:24 0° 35° (NE) 2,772 7.2 -21.0°
